Price: € 1000.00

 

The Night Rating Course includes the Ground School, 5 hours minimum of flight training at night (3 hours minimum dual and 5 Touch & Go Solo flights) and the Certificate at course’s completion.


If a student requires additional flight hours, the cost is 200.00 euro per hour.

There is no extra charge for additional hours of Ground School if needed.

The average time for completing this course is one week.

   

 

 

 

Student's Login

Local Time

LGIR WEATHER

[source: ADDS]
METAR
LGIR 200050Z 30007KT 9999 FEW020 23/20 Q1012 NOSIG =
TAF
TAF LGIR 192300Z 2000/2024 33011KT 9999 FEW018 PROB30 TEMPO 2010/2017 5000 TSRA FEW018CB BKN080 =

Czech sport aircraft

Cretan Eagle Aviation Ltd. is proud to be appointed as an authorized Czech Sport Aircraft Promoter for Greece
and Cyprus. Please click on the link or give us a call for any additional information on Czech Sport Aircraft.

 

 

On-line PPL QUIZ

Student members can join our free on-line database to practice on PPL quizzes and get ready for the real
exams. Becoming a member and getting access to our system is FREE for all of our students.

 

Paypal Verified

Payments for any Course can be made by Bank Transfer, Cash and PayPal secure payment.

 

Go to top